Welcome to Northern Hawkes Bay. New Zealand.
PWS Header
      nz Flag



Hit Counter


W3C Valid W3C Valid logo


    Wairoa

Select any of the Stations below to visit their websites.










Historic Data from Weather Underground
Select the location of interest below. Wairoa is the default. Please have patience, this Data is slow to load in.
Northern Hawkes Bay Historical Data
Daily Summary for May 20, 2017 Units:  English    Metric   Both
« Previous Day
Next Day »
Daily Weekly Monthly Yearly Custom
  High: Low: Average:
Temperature: 61.2 °F 39.9 °F 50 °F
Dew Point: 48.2 °F 29.5 °F 39.7 °F
Humidity: 94% 52% 68%
Wind Speed: 22.1mph 0.7mph 7mph
Wind Gust: 29.8mph - -
Wind- - West
Pressure: 30 in 29.6 in -
Precipitation: 0.24 in    
Historical Graphs
 
 
Tabular Data for May 20, 2017
Time Temperature Dew Point Pressure Wind Wind Speed Wind Gust Humidity Rainfall Rate (Hourly) solar
00:00 53.4 °F 39 °F 29.7 in NNE 2.2 mph 7.6 mph 58% 0 in 0 W/m2
00:05 53.1 °F 39 °F 29.7 in NE 4.5 mph 9.2 mph 59% 0 in 0 W/m2
00:10 53.4 °F 39.6 °F 29.7 in NNE 1.6 mph 9.2 mph 59% 0 in 0 W/m2
00:15 53.8 °F 38.8 °F 29.7 in North 6.9 mph 9.2 mph 57% 0 in 0 W/m2
00:20 54.7 °F 38.8 °F 29.7 in North 3.8 mph 17.4 mph 55% 0 in 0 W/m2
00:25 54.7 °F 38.8 °F 29.7 in NNW 6.9 mph 17.4 mph 55% 0 in 0 W/m2
00:30 54.9 °F 39 °F 29.7 in NNW 6 mph 11.4 mph 55% 0 in 0 W/m2
00:35 54.7 °F 38.8 °F 29.7 in NNW 4.5 mph 11.4 mph 55% 0 in 0 W/m2
00:40 54.7 °F 39.4 °F 29.7 in North 7.6 mph 10.7 mph 56% 0 in 0 W/m2
00:45 54.7 °F 39.4 °F 29.7 in NNW 7.6 mph 12.1 mph 56% 0 in 0 W/m2
00:50 54.7 °F 39.7 °F 29.7 in NNW 7.6 mph 12.1 mph 57% 0 in 0 W/m2
00:55 54.7 °F 39.7 °F 29.7 in North 7.6 mph 11.4 mph 57% 0 in 0 W/m2
01:00 54.7 °F 39.7 °F 29.7 in NNW 3.1 mph 13 mph 57% 0 in 0 W/m2
01:05 54.9 °F 40.5 °F 29.7 in NNW 6 mph 13 mph 58% 0 in 0 W/m2
01:10 54.7 °F 40.3 °F 29.7 in North 5.4 mph 12.1 mph 58% 0 in 0 W/m2
01:15 54.7 °F 40.6 °F 29.7 in North 3.8 mph 9.2 mph 59% 0 in 0 W/m2
01:20 54.9 °F 40.5 °F 29.7 in North 3.1 mph 9.2 mph 58% 0 in 0 W/m2
01:25 54.9 °F 40.8 °F 29.7 in NNE 3.1 mph 7.6 mph 59% 0 in 0 W/m2
01:30 54.1 °F 40.6 °F 29.7 in NNE 1.6 mph 6 mph 60% 0 in 0 W/m2
01:35 54 °F 40.8 °F 29.7 in NNE 2.2 mph 6 mph 61% 0 in 0 W/m2
01:40 53.4 °F 40.6 °F 29.7 in NNE 3.1 mph 5.4 mph 62% 0 in 0 W/m2
01:45 53.6 °F 40.5 °F 29.7 in NE 3.1 mph 6 mph 61% 0 in 0 W/m2
01:50 53.6 °F 40.5 °F 29.7 in NE 3.8 mph 8.3 mph 61% 0 in 0 W/m2
01:55 53.4 °F 41.2 °F 29.7 in NE 1.6 mph 8.3 mph 63% 0 in 0 W/m2
02:00 53.4 °F 41.2 °F 29.7 in NNE 3.1 mph 5.4 mph 63% 0 in 0 W/m2
02:05 53.4 °F 41.2 °F 29.7 in NNE 3.1 mph 7.6 mph 63% 0 in 0 W/m2
02:10 53.4 °F 41.2 °F 29.7 in North 4.5 mph 7.6 mph 63% 0 in 0 W/m2
02:15 53.6 °F 40.8 °F 29.7 in NNW 2.2 mph 6.9 mph 62% 0 in 0 W/m2
02:20 53.6 °F 40.8 °F 29.7 in North 3.8 mph 9.2 mph 62% 0 in 0 W/m2
02:25 53.8 °F 40.6 °F 29.7 in North 2.2 mph 9.2 mph 61% 0 in 0 W/m2
02:30 53.6 °F 40.5 °F 29.7 in NNW 2.2 mph 8.3 mph 61% 0 in 0 W/m2
02:35 53.6 °F 40.8 °F 29.7 in NNW 3.1 mph 9.2 mph 62% 0 in 0 W/m2
02:40 53.8 °F 41.2 °F 29.7 in NW 7.6 mph 15.2 mph 62% 0 in 0 W/m2
02:45 54.3 °F 41.2 °F 29.7 in NW 4.5 mph 15.2 mph 61% 0 in 0 W/m2
02:50 54.3 °F 41.2 °F 29.7 in NNW 4.5 mph 15.2 mph 61% 0 in 0 W/m2
02:55 54.3 °F 41.2 °F 29.7 in NNW 5.4 mph 9.8 mph 61% 0 in 0 W/m2
03:00 54.5 °F 41.4 °F 29.7 in NNW 7.6 mph 13.6 mph 61% 0 in 0 W/m2
03:05 54.7 °F 41.2 °F 29.7 in NW 5.4 mph 13.6 mph 60% 0 in 0 W/m2
03:10 54.7 °F 41.2 °F 29.7 in NW 6 mph 11.4 mph 60% 0 in 0 W/m2
03:15 54.3 °F 41.2 °F 29.7 in NW 6 mph 10.7 mph 61% 0 in 0 W/m2
03:20 54.1 °F 41 °F 29.7 in NNW 5.4 mph 9.8 mph 61% 0 in 0 W/m2
03:25 54.1 °F 41 °F 29.7 in NNW 5.4 mph 9.2 mph 61% 0 in 0 W/m2
03:30 54.1 °F 41 °F 29.7 in NW 3.8 mph 8.3 mph 61% 0 in 0 W/m2
03:35 54 °F 40.8 °F 29.7 in NW 8.3 mph 9.8 mph 61% 0 in 0 W/m2
03:40 54.1 °F 41 °F 29.7 in NNW 3.8 mph 9.8 mph 61% 0 in 0 W/m2
03:45 54 °F 40.8 °F 29.7 in NNW 3.8 mph 9.8 mph 61% 0 in 0 W/m2
03:48 54 °F 40.8 °F 29.7 in NW 5.4 mph 8.3 mph 61% 0 in 0 W/m2
03:53 54.1 °F 40.6 °F 29.7 in NW 4.5 mph 10.7 mph 60% 0 in 0 W/m2
03:58 54.3 °F 40.6 °F 29.7 in NW 3.1 mph 10.7 mph 60% 0 in 0 W/m2
04:03 54.3 °F 40.6 °F 29.7 in NNW 3.8 mph 9.2 mph 60% 0 in 0 W/m2
04:08 54.1 °F 40.6 °F 29.7 in NNW 3.1 mph 9.2 mph 60% 0 in 0 W/m2
04:13 53.8 °F 40.6 °F 29.7 in NW 3.8 mph 7.6 mph 61% 0 in 0 W/m2
04:18 53.6 °F 40.5 °F 29.7 in NW 3.1 mph 6.9 mph 61% 0 in 0 W/m2
04:23 53.4 °F 40.6 °F 29.7 in NW 6 mph 7.6 mph 62% 0 in 0 W/m2
04:28 53.6 °F 40.5 °F 29.7 in NW 2.2 mph 7.6 mph 61% 0 in 0 W/m2
04:33 53.6 °F 40.5 °F 29.7 in NW 3.1 mph 9.2 mph 61% 0 in 0 W/m2
04:38 53.4 °F 40.6 °F 29.7 in NW 3.1 mph 9.2 mph 62% 0 in 0 W/m2
04:43 53.6 °F 40.5 °F 29.7 in NNW 6.9 mph 10.7 mph 61% 0 in 0 W/m2
04:48 53.6 °F 40.5 °F 29.7 in NNW 5.4 mph 10.7 mph 61% 0 in 0 W/m2
04:53 53.6 °F 40.5 °F 29.7 in NNW 7.6 mph 10.7 mph 61% 0 in 0 W/m2
04:58 54 °F 40.5 °F 29.7 in NW 8.3 mph 13.6 mph 60% 0 in 0 W/m2
05:03 54.1 °F 40.1 °F 29.7 in NW 6 mph 13.6 mph 59% 0 in 0 W/m2
05:08 54 °F 40.5 °F 29.7 in NW 4.5 mph 11.4 mph 60% 0 in 0 W/m2
05:13 53.8 °F 40.3 °F 29.7 in NNW 6 mph 10.7 mph 60% 0 in 0 W/m2
05:18 53.8 °F 40.3 °F 29.7 in NNW 7.6 mph 11.4 mph 60% 0 in 0 W/m2
05:23 54.1 °F 40.1 °F 29.7 in NNW 9.8 mph 13 mph 59% 0 in 0 W/m2
05:28 54.7 °F 40.3 °F 29.7 in NNW 10.7 mph 16.8 mph 58% 0 in 0 W/m2
05:33 54.5 °F 39.9 °F 29.7 in NNW 7.6 mph 16.8 mph 58% 0 in 0 W/m2
05:38 54.3 °F 39.9 °F 29.7 in NNW 4.5 mph 15.9 mph 58% 0 in 0 W/m2
05:43 54 °F 39.9 °F 29.7 in NNW 6.9 mph 13 mph 59% 0 in 0 W/m2
05:48 53.8 °F 40.3 °F 29.7 in NW 6 mph 11.4 mph 60% 0 in 0 W/m2
05:53 53.8 °F 40.3 °F 29.7 in NNW 9.2 mph 12.1 mph 60% 0 in 0 W/m2
05:58 53.8 °F 40.3 °F 29.7 in NNW 3.8 mph 12.1 mph 60% 0 in 0 W/m2
06:00 53.6 °F 40.1 °F 29.7 in North 2.2 mph 12.1 mph 60% 0 in 0 W/m2
06:05 53.1 °F 40.5 °F 29.7 in NNW 2.2 mph 7.6 mph 62% 0 in 0 W/m2
06:10 52.7 °F 40.1 °F 29.7 in NNW 2.2 mph 4.5 mph 62% 0 in 0 W/m2
06:15 52.2 °F 39.9 °F 29.7 in NNW 1.6 mph 4.5 mph 63% 0 in 0 W/m2
06:20 51.6 °F 39.7 °F 29.7 in North 0.7 mph 3.1 mph 64% 0 in 0 W/m2
06:25 51.4 °F 40.5 °F 29.7 in North 1.6 mph 6 mph 66% 0 in 0 W/m2
06:30 51.1 °F 40.1 °F 29.7 in NNW 3.1 mph 6 mph 66% 0 in 0 W/m2
06:35 50.7 °F 40.3 °F 29.7 in NW 3.1 mph 4.5 mph 67% 0 in 0 W/m2
06:40 50.5 °F 40.5 °F 29.7 in NNW 1.6 mph 4.5 mph 68% 0 in 0 W/m2
06:45 50.5 °F 40.5 °F 29.7 in NNW 1.6 mph 3.8 mph 68% 0 in 0 W/m2
06:50 50.4 °F 40.3 °F 29.6 in North 3.1 mph 4.5 mph 68% 0 in 0 W/m2
06:55 50.2 °F 40.5 °F 29.6 in NNW 3.1 mph 6.9 mph 69% 0 in 0 W/m2
07:00 50.9 °F 41.2 °F 29.6 in NNW 4.5 mph 8.3 mph 69% 0 in 0 W/m2
07:05 51.6 °F 41 °F 29.6 in North 6.9 mph 9.2 mph 67% 0 in 1 W/m2
07:10 52.2 °F 40.8 °F 29.6 in North 5.4 mph 9.2 mph 65% 0 in 3 W/m2
07:15 52.2 °F 40.8 °F 29.7 in NNW 3.1 mph 8.3 mph 65% 0 in 5 W/m2
07:20 51.6 °F 40.6 °F 29.6 in NW 2.2 mph 8.3 mph 66% 0 in 8 W/m2
07:25 51.1 °F 40.5 °F 29.6 in NW 2.2 mph 8.3 mph 67% 0 in 12 W/m2
07:30 51.1 °F 40.8 °F 29.6 in NW 2.2 mph 4.5 mph 68% 0 in 39 W/m2
07:35 51.3 °F 41.2 °F 29.6 in NW 1.6 mph 3.8 mph 68% 0 in 54 W/m2
07:40 51.6 °F 41.4 °F 29.6 in NNW 1.6 mph 3.8 mph 68% 0 in 69 W/m2
07:45 52 °F 41.4 °F 29.6 in NW 2.2 mph 3.8 mph 67% 0 in 83 W/m2
07:50 52.9 °F 41.7 °F 29.6 in NW 4.5 mph 6 mph 66% 0 in 98 W/m2
07:56 54.5 °F 41.7 °F 29.6 in North 4.5 mph 8.3 mph 62% 0 in 110 W/m2
08:01 55 °F 42.3 °F 29.6 in North 5.4 mph 8.3 mph 62% 0 in 123 W/m2
08:06 55.2 °F 42.4 °F 29.6 in North 6.9 mph 9.2 mph 62% 0 in 92 W/m2
08:11 55 °F 41.7 °F 29.6 in North 6 mph 10.7 mph 61% 0 in 47 W/m2
08:16 54.3 °F 41.5 °F 29.6 in North 3.8 mph 10.7 mph 62% 0 in 50 W/m2
08:21 54.3 °F 42.1 °F 29.6 in North 5.4 mph 9.2 mph 63% 0 in 182 W/m2
08:26 55.4 °F 43 °F 29.6 in North 5.4 mph 9.8 mph 63% 0 in 67 W/m2
08:31 55.2 °F 43 °F 29.6 in North 4.5 mph 9.8 mph 63% 0 in 61 W/m2
08:36 55.2 °F 43.3 °F 29.6 in NNW 3.1 mph 11.4 mph 64% 0 in 53 W/m2
08:41 55.2 °F 43.3 °F 29.6 in NNW 6 mph 11.4 mph 64% 0 in 58 W/m2
08:46 55.6 °F 43.2 °F 29.6 in NNW 3.8 mph 12.1 mph 63% 0 in 64 W/m2
08:51 55.9 °F 43.2 °F 29.6 in NNW 6.9 mph 12.1 mph 62% 0 in 82 W/m2
08:56 56.7 °F 43.3 °F 29.6 in NW 6.9 mph 10.7 mph 61% 0 in 93 W/m2
09:01 56.8 °F 43.5 °F 29.6 in NNW 6 mph 12.1 mph 61% 0 in 96 W/m2
09:06 57.4 °F 43.2 °F 29.6 in NNW 6.9 mph 12.1 mph 59% 0 in 123 W/m2
09:11 58.1 °F 43.9 °F 29.6 in NW 6 mph 9.8 mph 59% 0 in 260 W/m2
09:16 59.5 °F 43.9 °F 29.6 in NNW 6 mph 12.1 mph 56% 0 in 301 W/m2
09:21 60.1 °F 43.3 °F 29.6 in NW 6.9 mph 16.8 mph 54% 0 in 299 W/m2
09:26 60.8 °F 43.5 °F 29.6 in NW 6.9 mph 16.8 mph 53% 0 in 227 W/m2
09:31 61.2 °F 43.3 °F 29.6 in NNW 6 mph 12.1 mph 52% 0 in 158 W/m2
09:36 60.3 °F 43.2 °F 29.6 in NNW 4.5 mph 17.4 mph 53% 0 in 99 W/m2
09:41 59.4 °F 43.2 °F 29.6 in NNW 6 mph 17.4 mph 55% 0 in 130 W/m2
09:46 59 °F 43.3 °F 29.6 in NW 6 mph 13 mph 56% 0 in 118 W/m2
09:51 59 °F 43.3 °F 29.6 in NNW 6 mph 13 mph 56% 0 in 105 W/m2
09:56 58.8 °F 43.5 °F 29.6 in NNW 5.4 mph 13 mph 57% 0 in 122 W/m2
10:01 58.8 °F 43.5 °F 29.6 in NNW 5.4 mph 12.1 mph 57% 0 in 94 W/m2
10:06 58.6 °F 43.5 °F 29.6 in NW 6 mph 11.4 mph 57% 0 in 72 W/m2
10:11 58.6 °F 43.5 °F 29.6 in NW 3.1 mph 11.4 mph 57% 0 in 65 W/m2
10:16 58.5 °F 43.7 °F 29.6 in NW 6 mph 11.4 mph 58% 0 in 67 W/m2
10:21 58.3 °F 43.5 °F 29.6 in NW 6 mph 14.5 mph 58% 0 in 53 W/m2
10:26 57.7 °F 44.1 °F 29.6 in WNW 6.9 mph 14.5 mph 60% 0 in 43 W/m2
10:31 57.2 °F 45.1 °F 29.6 in West 2.2 mph 12.1 mph 64% 0 in 36 W/m2
10:36 56.5 °F 45.3 °F 29.6 in West 5.4 mph 9.2 mph 66% 0 in 28 W/m2
10:41 55.9 °F 45.9 °F 29.6 in SSW 14.5 mph 22.1 mph 69% 0.01 in 19 W/m2
10:46 54 °F 46.2 °F 29.6 in SW 13 mph 23.5 mph 75% 0.02 in 35 W/m2
10:51 52.2 °F 46.8 °F 29.6 in SW 18.3 mph 25.9 mph 82% 0.04 in 87 W/m2
10:56 52 °F 46.9 °F 29.6 in SW 13 mph 25.9 mph 83% 0.05 in 40 W/m2
11:01 51.8 °F 48 °F 29.6 in SW 14.5 mph 25.9 mph 87% 0.06 in 31 W/m2
11:06 51.3 °F 48 °F 29.6 in WSW 13 mph 21.3 mph 89% 0.08 in 33 W/m2
11:11 50.5 °F 48 °F 29.6 in SW 12.1 mph 21.3 mph 91% 0.12 in 39 W/m2
11:16 50 °F 48 °F 29.6 in SSW 13.6 mph 21.3 mph 93% 0.14 in 35 W/m2
11:21 50 °F 48 °F 29.6 in SW 13.6 mph 19 mph 93% 0.15 in 31 W/m2
11:26 50 °F 48 °F 29.7 in SW 11.4 mph 19 mph 93% 0.17 in 32 W/m2
11:31 49.8 °F 48.2 °F 29.6 in SSW 10.7 mph 17.4 mph 94% 0.18 in 72 W/m2
11:36 50 °F 48 °F 29.7 in SSW 11.4 mph 16.8 mph 93% 0.18 in 98 W/m2
11:41 50.4 °F 48 °F 29.7 in SW 11.4 mph 19 mph 92% 0.18 in 85 W/m2
11:46 50 °F 47.5 °F 29.7 in SW 8.3 mph 19 mph 91% 0.19 in 31 W/m2
11:51 49.6 °F 47.5 °F 29.7 in SW 12.1 mph 17.4 mph 92% 0.19 in 41 W/m2
11:56 49.5 °F 46.9 °F 29.7 in WSW 9.2 mph 17.4 mph 91% 0.18 in 56 W/m2
12:01 49.8 °F 47.3 °F 29.7 in SW 9.8 mph 17.4 mph 91% 0.17 in 44 W/m2
12:17 50.2 °F 46.6 °F 29.7 in SW 8.3 mph 17.4 mph 87% 0.09 in 35 W/m2
12:22 49.8 °F 46.4 °F 29.7 in SW 9.2 mph 16.8 mph 88% 0.08 in 26 W/m2
12:27 50 °F 46.2 °F 29.7 in SW 10.7 mph 16.8 mph 87% 0.07 in 21 W/m2
12:32 50 °F 46 °F 29.7 in SW 9.8 mph 15.9 mph 86% 0.06 in 36 W/m2
12:37 50.2 °F 45.5 °F 29.6 in SW 6 mph 15.9 mph 84% 0.05 in 54 W/m2
12:42 50.2 °F 45.9 °F 29.7 in SW 7.6 mph 15.9 mph 85% 0.04 in 44 W/m2
12:47 50.4 °F 45.7 °F 29.7 in SW 13 mph 19 mph 84% 0.02 in 35 W/m2
12:52 50.4 °F 45.3 °F 29.7 in SW 15.2 mph 19 mph 83% 0.01 in 66 W/m2
12:57 50.4 °F 45.3 °F 29.7 in SSW 11.4 mph 22.1 mph 83% 0.01 in 80 W/m2
13:02 50.2 °F 45 °F 29.7 in SSW 9.8 mph 22.1 mph 82% 0.01 in 109 W/m2
13:07 50 °F 44.4 °F 29.7 in SSW 17.4 mph 24.4 mph 81% 0 in 91 W/m2
13:12 49.6 °F 44.4 °F 29.7 in SSW 13 mph 24.4 mph 82% 0 in 121 W/m2
13:17 49.1 °F 43.5 °F 29.7 in SSW 15.9 mph 28.2 mph 81% 0 in 138 W/m2
13:22 49.3 °F 43.7 °F 29.7 in SW 14.5 mph 28.2 mph 81% 0 in 161 W/m2
13:27 49.3 °F 43.7 °F 29.7 in SW 13 mph 25.9 mph 81% 0 in 102 W/m2
13:32 48.9 °F 43 °F 29.7 in SW 9.2 mph 22.1 mph 80% 0 in 110 W/m2
13:37 48.9 °F 42.6 °F 29.7 in SSW 13 mph 22.1 mph 79% 0 in 162 W/m2
13:42 49.6 °F 43.3 °F 29.7 in SSW 10.7 mph 21.3 mph 79% 0 in 159 W/m2
13:47 49.1 °F 42.4 °F 29.7 in SSW 16.8 mph 25.9 mph 78% 0 in 100 W/m2
13:52 48.2 °F 42.1 °F 29.7 in SSW 14.5 mph 25.9 mph 79% 0 in 60 W/m2
13:57 47.7 °F 41.7 °F 29.7 in SW 15.9 mph 25.9 mph 80% 0 in 100 W/m2
14:02 47.7 °F 41.7 °F 29.7 in SW 22.1 mph 26.6 mph 80% 0 in 64 W/m2
14:07 47.7 °F 42.4 °F 29.7 in SW 17.4 mph 26.6 mph 82% 0 in 36 W/m2
14:12 47.5 °F 42.3 °F 29.7 in SW 9.8 mph 28.9 mph 82% 0 in 40 W/m2
14:17 46.9 °F 41.7 °F 29.7 in SW 11.4 mph 28.9 mph 82% 0 in 39 W/m2
14:22 46.9 °F 42.4 °F 29.7 in SW 9.8 mph 25.1 mph 84% 0 in 36 W/m2
14:39 46.9 °F 42.6 °F 29.7 in WSW 15.2 mph 26.6 mph 85% 0 in 39 W/m2
14:44 47.1 °F 42.8 °F 29.7 in WSW 11.4 mph 26.6 mph 85% 0 in 78 W/m2
15:02 47.1 °F 40.6 °F 29.7 in WSW 9.8 mph 29.8 mph 78% 0 in 64 W/m2
15:07 47.3 °F 39.4 °F 29.7 in WSW 13.6 mph 22.1 mph 74% 0 in 84 W/m2
15:12 47.7 °F 38.7 °F 29.7 in West 14.5 mph 27.3 mph 71% 0 in 91 W/m2
15:17 47.8 °F 38.8 °F 29.7 in West 13.6 mph 27.3 mph 71% 0 in 93 W/m2
15:22 48.4 °F 39.7 °F 29.7 in West 13.6 mph 22.8 mph 72% 0 in 106 W/m2
15:27 48 °F 40.1 °F 29.7 in WSW 8.3 mph 22.8 mph 74% 0 in 107 W/m2
15:32 48.6 °F 39.9 °F 29.7 in WSW 11.4 mph 23.5 mph 72% 0 in 101 W/m2
15:37 48.7 °F 39.7 °F 29.7 in WSW 17.4 mph 23.5 mph 71% 0 in 97 W/m2
15:42 48.7 °F 40.1 °F 29.7 in WSW 17.4 mph 23.5 mph 72% 0 in 135 W/m2
15:47 48.7 °F 40.1 °F 29.7 in SW 15.9 mph 25.1 mph 72% 0 in 18 W/m2
15:52 46.9 °F 40.5 °F 29.7 in SW 9.8 mph 26.6 mph 78% 0 in 24 W/m2
15:57 45.9 °F 40.5 °F 29.8 in SW 14.5 mph 27.3 mph 81% 0 in 25 W/m2
16:02 45.9 °F 40.5 °F 29.8 in SSW 13 mph 27.3 mph 81% 0 in 31 W/m2
16:07 45.9 °F 40.6 °F 29.8 in SW 15.2 mph 24.4 mph 82% 0 in 34 W/m2
16:12 45.9 °F 39.9 °F 29.8 in SW 12.1 mph 24.4 mph 80% 0 in 34 W/m2
16:17 46.2 °F 40.5 °F 29.8 in WSW 13.6 mph 22.8 mph 80% 0 in 26 W/m2
16:22 46 °F 40.3 °F 29.8 in SW 6.9 mph 22.1 mph 80% 0 in 29 W/m2
16:27 46.2 °F 40.5 °F 29.8 in SW 10.7 mph 19.7 mph 80% 0 in 28 W/m2
16:32 46.4 °F 39.6 °F 29.8 in SW 7.6 mph 19.7 mph 77% 0 in 16 W/m2
16:37 46.6 °F 39.4 °F 29.8 in SW 7.6 mph 17.4 mph 76% 0 in 12 W/m2
16:42 46.8 °F 39.6 °F 29.8 in WSW 4.5 mph 16.8 mph 76% 0 in 9 W/m2
16:47 46.4 °F 39.4 °F 29.8 in West 3.8 mph 15.2 mph 76% 0 in 8 W/m2
16:52 46.2 °F 38.7 °F 29.8 in West 2.2 mph 10.7 mph 75% 0 in 6 W/m2
16:57 45.9 °F 38.7 °F 29.8 in West 1.6 mph 9.2 mph 76% 0 in 4 W/m2
17:02 45.5 °F 38.5 °F 29.8 in West 1.6 mph 9.2 mph 76% 0 in 2 W/m2
17:07 45.3 °F 38.5 °F 29.8 in WNW 3.8 mph 8.3 mph 77% 0 in 0 W/m2
17:12 45.1 °F 38.5 °F 29.8 in WNW 3.8 mph 8.3 mph 77% 0 in 0 W/m2
17:17 45 °F 38.1 °F 29.8 in NW 2.2 mph 6.9 mph 77% 0 in 0 W/m2
17:22 44.8 °F 38.3 °F 29.8 in NW 3.1 mph 6.9 mph 78% 0 in 0 W/m2
17:27 44.4 °F 38.7 °F 29.8 in NW 3.1 mph 6 mph 80% 0 in 0 W/m2
17:32 44.1 °F 38.8 °F 29.8 in NW 3.1 mph 6.9 mph 82% 0 in 0 W/m2
17:37 43.9 °F 39.4 °F 29.8 in NW 3.8 mph 6.9 mph 84% 0 in 0 W/m2
17:42 43.7 °F 39.6 °F 29.8 in NW 3.8 mph 6.9 mph 85% 0 in 0 W/m2
17:47 43.7 °F 39.6 °F 29.8 in NW 3.8 mph 7.6 mph 85% 0 in 0 W/m2
17:52 43.5 °F 39.4 °F 29.8 in NW 3.8 mph 7.6 mph 85% 0 in 0 W/m2
17:57 43.3 °F 39 °F 29.8 in NW 3.8 mph 7.6 mph 85% 0 in 0 W/m2
18:02 43.3 °F 39 °F 29.8 in NW 3.1 mph 7.6 mph 85% 0 in 0 W/m2
18:07 43.2 °F 38.7 °F 29.8 in NW 2.2 mph 6.9 mph 84% 0 in 0 W/m2
18:12 43 °F 38.5 °F 29.8 in NW 3.8 mph 5.4 mph 84% 0 in 0 W/m2
18:17 43 °F 38.1 °F 29.8 in NW 3.1 mph 6 mph 83% 0 in 0 W/m2
18:22 43 °F 38.1 °F 29.8 in NW 3.8 mph 6 mph 83% 0 in 0 W/m2
18:27 43 °F 37.9 °F 29.8 in WNW 3.1 mph 6 mph 82% 0 in 0 W/m2
18:37 43.3 °F 36.7 °F 29.8 in West 3.8 mph 7.6 mph 77% 0 in 0 W/m2
18:42 43.7 °F 36 °F 29.8 in West 3.8 mph 7.6 mph 74% 0 in 0 W/m2
18:47 43.7 °F 35.6 °F 29.8 in West 4.5 mph 7.6 mph 73% 0 in 0 W/m2
18:52 44.1 °F 36 °F 29.8 in West 2.2 mph 7.6 mph 73% 0 in 0 W/m2
18:57 44.2 °F 35.8 °F 29.8 in WNW 3.1 mph 9.8 mph 72% 0 in 0 W/m2
19:02 44.4 °F 35.6 °F 29.8 in West 4.5 mph 9.8 mph 71% 0 in 0 W/m2
19:07 44.4 °F 35.6 °F 29.8 in West 3.8 mph 8.3 mph 71% 0 in 0 W/m2
19:12 44.4 °F 35.2 °F 29.9 in West 3.1 mph 8.3 mph 70% 0 in 0 W/m2
19:17 44.8 °F 34.9 °F 29.9 in West 8.3 mph 11.4 mph 68% 0 in 0 W/m2
19:22 45.1 °F 34.5 °F 29.9 in West 9.2 mph 14.5 mph 66% 0 in 0 W/m2
19:27 46.4 °F 35.2 °F 29.9 in SW 6.9 mph 19.7 mph 65% 0 in 0 W/m2
19:32 47.1 °F 35.6 °F 29.9 in WSW 6 mph 19.7 mph 64% 0 in 0 W/m2
19:37 47.3 °F 32.7 °F 29.9 in WSW 12.1 mph 25.1 mph 57% 0 in 0 W/m2
19:38 47.3 °F 32.7 °F 29.9 in WSW 15.9 mph 25.1 mph 57% 0 in 0 W/m2
19:43 47.5 °F 34 °F 29.9 in WSW 18.3 mph 25.1 mph 59% 0 in 0 W/m2
19:48 47.7 °F 34.5 °F 29.9 in WSW 7.6 mph 25.9 mph 60% 0 in 0 W/m2
19:53 47.3 °F 34.2 °F 29.9 in SW 12.1 mph 25.9 mph 60% 0 in 0 W/m2
19:58 47.3 °F 33.6 °F 29.9 in WSW 7.6 mph 25.1 mph 59% 0 in 0 W/m2
20:03 47.3 °F 33.6 °F 29.9 in WSW 13 mph 25.1 mph 59% 0 in 0 W/m2
20:08 47.8 °F 35.4 °F 29.9 in WSW 13.6 mph 23.5 mph 62% 0 in 0 W/m2
20:13 47.8 °F 35.1 °F 29.9 in WSW 10.7 mph 23.5 mph 61% 0 in 0 W/m2
20:18 47.8 °F 34.5 °F 29.9 in WSW 6.9 mph 25.9 mph 60% 0 in 0 W/m2
20:23 47.5 °F 33.4 °F 29.9 in West 8.3 mph 25.9 mph 58% 0 in 0 W/m2
20:28 47.1 °F 33.4 °F 29.9 in West 6.9 mph 13.6 mph 59% 0 in 0 W/m2
20:33 46.8 °F 33.3 °F 29.9 in West 9.2 mph 13.6 mph 59% 0 in 0 W/m2
20:38 46.6 °F 33.1 °F 29.9 in WNW 7.6 mph 15.2 mph 59% 0 in 0 W/m2
20:43 46.8 °F 32.7 °F 29.9 in WSW 10.7 mph 20.6 mph 58% 0 in 0 W/m2
20:48 46.9 °F 32.9 °F 29.9 in SW 7.6 mph 20.6 mph 58% 0 in 0 W/m2
20:53 47.3 °F 32.4 °F 29.9 in SW 19.7 mph 25.9 mph 56% 0 in 0 W/m2
20:58 47.7 °F 33.3 °F 29.9 in SW 14.5 mph 25.9 mph 57% 0 in 0 W/m2
21:03 47.3 °F 32.4 °F 29.9 in WSW 13.6 mph 25.9 mph 56% 0 in 0 W/m2
21:08 47.5 °F 32.5 °F 29.9 in WSW 13 mph 22.1 mph 56% 0 in 0 W/m2
21:13 47.5 °F 32.5 °F 29.9 in SW 19 mph 28.9 mph 56% 0 in 0 W/m2
21:18 47.3 °F 32.7 °F 29.9 in SW 15.9 mph 28.9 mph 57% 0 in 0 W/m2
21:23 47.1 °F 32.7 °F 29.9 in WSW 11.4 mph 22.8 mph 57% 0 in 0 W/m2
21:28 47.1 °F 32.7 °F 29.9 in WSW 9.2 mph 22.8 mph 57% 0 in 0 W/m2
21:33 47.1 °F 32.7 °F 29.9 in WSW 13.6 mph 22.8 mph 57% 0 in 0 W/m2
21:38 47.1 °F 31.8 °F 29.9 in WSW 13.6 mph 22.8 mph 55% 0 in 0 W/m2
21:43 47.1 °F 32.2 °F 29.9 in WSW 9.8 mph 21.3 mph 56% 0 in 0 W/m2
21:48 46.9 °F 32.2 °F 29.9 in WSW 4.5 mph 20.6 mph 56% 0 in 0 W/m2
21:53 46.6 °F 31.6 °F 29.9 in West 3.8 mph 16.8 mph 56% 0 in 0 W/m2
21:58 45.3 °F 30.9 °F 29.9 in WNW 3.8 mph 9.8 mph 57% 0 in 0 W/m2
22:03 43.9 °F 31.6 °F 29.9 in NW 5.4 mph 9.8 mph 62% 0 in 0 W/m2
22:08 43 °F 31.3 °F 29.9 in NW 6 mph 8.3 mph 63% 0 in 0 W/m2
22:13 42.6 °F 32.2 °F 29.9 in NW 3.8 mph 8.3 mph 66% 0 in 0 W/m2
22:18 42.3 °F 32.2 °F 29.9 in NNW 4.5 mph 8.3 mph 67% 0 in 0 W/m2
22:23 42.1 °F 32.7 °F 29.9 in NNW 6 mph 7.6 mph 69% 0 in 0 W/m2
22:28 41.9 °F 32.7 °F 29.9 in NNW 4.5 mph 7.6 mph 70% 0 in 0 W/m2
22:33 41.5 °F 33.4 °F 29.9 in NNW 3.8 mph 6.9 mph 73% 0 in 0 W/m2
22:38 41.4 °F 33.4 °F 29.9 in NNW 3.8 mph 6.9 mph 73% 0 in 0 W/m2
22:43 41 °F 33.4 °F 29.9 in NW 4.5 mph 6.9 mph 74% 0 in 0 W/m2
22:48 40.6 °F 33.3 °F 29.9 in NW 2.2 mph 6 mph 75% 0 in 0 W/m2
22:53 40.1 °F 33.3 °F 29.9 in NW 3.1 mph 6 mph 76% 0 in 0 W/m2
22:58 39.9 °F 33.1 °F 29.9 in NW 3.8 mph 6 mph 76% 0 in 0 W/m2
23:03 39.9 °F 33.1 °F 29.9 in NW 3.8 mph 6 mph 76% 0 in 0 W/m2
23:08 40.1 °F 33.3 °F 29.9 in NW 3.8 mph 6.9 mph 76% 0 in 0 W/m2
23:13 40.6 °F 33.1 °F 29.9 in NW 4.5 mph 8.3 mph 74% 0 in 0 W/m2
23:18 40.6 °F 32.4 °F 29.9 in NW 4.5 mph 8.3 mph 72% 0 in 0 W/m2
23:23 40.5 °F 31.8 °F 29.9 in NNW 2.2 mph 6.9 mph 71% 0 in 0 W/m2
23:28 40.5 °F 31.5 °F 29.9 in NW 3.1 mph 7.6 mph 70% 0 in 0 W/m2
23:34 40.6 °F 30.9 °F 29.9 in NW 3.1 mph 7.6 mph 68% 0 in 0 W/m2
23:39 40.8 °F 30.7 °F 29.9 in NW 2.2 mph 7.6 mph 67% 0 in 0 W/m2
23:44 41.2 °F 29.8 °F 29.9 in NW 3.1 mph 6.9 mph 64% 0 in 0 W/m2
23:49 41 °F 29.8 °F 29.9 in NW 2.2 mph 7.6 mph 64% 0 in 0 W/m2
23:54 41 °F 29.8 °F 29.9 in NW 1.6 mph 7.6 mph 64% 0 in 0 W/m2
23:59 41.5 °F 29.5 °F 30 in WNW 4.5 mph 9.2 mph 62% 0 in 0 W/m2
Northern Hawkes Bay. New Zealand Historic Data
Compliments of Weather Underground - 2 mb